GW3653 Weather Reports


Display with metric or nautical units.
time (UTC)temp
F
wind
direction
speed
MPH
gust
MPH
rain 1hr
in
rain 24hr
in
rain mn
in
humidity
%
barometer
mb
20260903020518 59 0.0 2.0 0.00 0.07 0.00 80 1017.3
20260903015518 59 0.0 2.0 0.00 0.07 0.00 81 1017.5
20260903014558 58 0.0 7.0 0.00 0.07 0.00 82 1017.7
20260903013538 57 0.0 2.0 0.00 0.07 0.00 83 1018.0
20260903012538 57 0.0 2.0 0.00 0.07 0.00 84 1018.0
20260903011518 57 0.0 2.0 0.00 0.07 0.00 85 1018.3
20260903010518 56 0.0 2.0 0.00 0.07 0.00 86 1018.3
20260903005518 55 0.0 1.0 0.00 0.07 0.00 87 1018.3
20260903004518 55 0.0 2.0 0.00 0.07 0.00 89 1018.5
20260903003518 55 0.0 0.0 0.00 0.07 0.00 90 1018.6
20260903002518 54 0.0 0.0 0.00 0.07 0.00 90 1018.7
20260903001518 54 0.0 0.0 0.00 0.07 0.00 91 1018.7
20260903000518 53 0.0 0.0 0.00 0.07 0.00 91 1018.5
20260902235518 52 0.0 0.0 0.00 0.07 0.00 92 1018.9
20260902234518 52 0.0 0.0 0.00 0.07 0.00 91 1018.8
20260902233538 52 0.0 0.0 0.00 0.07 0.00 92 1018.8
20260902232518 52 0.0 0.0 0.00 0.07 0.00 92 1018.8
20260902231518 52 0.0 0.0 0.00 0.07 0.00 92 1018.8
20260902230518 51 0.0 0.0 0.00 0.07 0.00 92 1018.9
20260902225518 51 0.0 0.0 0.00 0.07 0.00 92 1019.0
20260902224518 51 0.0 0.0 0.00 0.07 0.00 92 1019.0
20260902223518 51 0.0 0.0 0.00 0.07 0.00 92 1019.1
20260902222518 51 0.0 0.0 0.00 0.07 0.00 92 1019.1
20260902221518 51 0.0 0.0 0.00 0.07 0.00 92 1019.2
20260902220518 51 0.0 0.0 0.00 0.07 0.00 92 1019.1
20260902215518 51 0.0 0.0 0.00 0.07 0.00 92 1019.0
20260902214537 51 0.0 0.0 0.00 0.07 0.00 92 1019.1
20260902213517 52 0.0 0.0 0.00 0.07 0.00 92 1019.2
20260902212517 52 0.0 0.0 0.00 0.07 0.00 92 1019.2
20260902211517 51 0.0 0.0 0.00 0.07 0.00 92 1019.1
20260902210518 52 0.0 0.0 0.00 0.07 0.00 92 1019.1
20260902205517 51 0.0 0.0 0.00 0.07 0.00 92 1019.1
20260902204517 51 0.0 0.0 0.00 0.07 0.00 92 1019.3
20260902203558 51 0.0 0.0 0.00 0.07 0.00 92 1019.2
20260902202518 51 0.0 0.0 0.00 0.07 0.00 92 1019.3
20260902201517 51 0.0 0.0 0.00 0.07 0.00 92 1019.4
20260902200539 51 0.0 0.0 0.00 0.07 0.00 92 1019.3
20260902195517 52 0.0 0.0 0.00 0.07 0.00 91 1019.3
20260902194517 52 0.0 0.0 0.00 0.07 0.00 92 1019.3
20260902193518 52 0.0 0.0 0.00 0.07 0.00 92 1019.5
20260902192517 51 0.0 0.0 0.00 0.07 0.00 92 1019.5
20260902191537 51 0.0 0.0 0.00 0.07 0.00 92 1019.6
20260902190517 51 0.0 0.0 0.00 0.07 0.00 91 1019.6
20260902185517 51 0.0 0.0 0.00 0.07 0.00 92 1019.9
20260902184537 52 0.0 0.0 0.00 0.07 0.00 92 1020.0
20260902183557 51 0.0 0.0 0.00 0.07 0.00 91 1020.1
20260902182517 51 0.0 0.0 0.00 0.07 0.00 91 1020.2
20260902181517 52 0.0 0.0 0.00 0.07 0.00 91 1020.2
20260902180517 52 0.0 0.0 0.00 0.07 0.00 92 1020.3
20260902175517 52 0.0 0.0 0.00 0.07 0.00 92 1020.3
20260902174518 52 0.0 0.0 0.00 0.07 0.00 92 1020.4
20260902173537 51 0.0 0.0 0.00 0.07 0.00 92 1020.5
20260902172519 51 0.0 0.0 0.00 0.07 0.00 92 1020.5
20260902171519 51 0.0 0.0 0.00 0.07 0.00 91 1020.7
20260902170540 52 0.0 0.0 0.00 0.07 0.00 91 1020.8
20260902165519 52 0.0 0.0 0.00 0.07 0.00 91 1020.7
20260902164519 52 0.0 0.0 0.00 0.07 0.00 91 1020.7
20260902163520 52 0.0 0.0 0.00 0.07 0.00 91 1020.6
20260902162519 52 0.0 0.0 0.00 0.07 0.00 91 1020.7
20260902161519 52 0.0 0.0 0.00 0.07 0.00 91 1020.8
20260902160519 53 0.0 0.0 0.00 0.07 0.00 91 1020.8
20260902155557 53 0.0 0.0 0.00 0.07 0.07 91 1020.9
20260902154518 53 0.0 0.0 0.00 0.07 0.07 91 1021.0
20260902153537 53 0.0 0.0 0.00 0.07 0.07 91 1021.1
20260902152517 53 0.0 0.0 0.00 0.07 0.07 91 1021.1
20260902151518 52 0.0 0.0 0.00 0.07 0.07 91 1021.3
20260902150538 53 0.0 0.0 0.00 0.07 0.07 91 1021.1
20260902145518 53 0.0 0.0 0.00 0.07 0.07 91 1021.3
20260902144518 53 0.0 0.0 0.00 0.07 0.07 92 1021.5
20260902143518 53 0.0 0.0 0.00 0.07 0.07 91 1021.6
20260902142518 52 0.0 0.0 0.00 0.07 0.07 91 1021.6
20260902141518 53 0.0 0.0 0.00 0.07 0.07 91 1021.6
20260902140518 53 0.0 0.0 0.00 0.07 0.07 91 1021.7
20260902135518 53 0.0 0.0 0.00 0.07 0.07 91 1021.8
20260902134519 53 0.0 0.0 0.00 0.07 0.07 91 1021.8
20260902133539 53 0.0 0.0 0.00 0.07 0.07 91 1021.9
20260902132518 53 0.0 0.0 0.00 0.07 0.07 91 1021.8
20260902131518 53 0.0 0.0 0.00 0.07 0.07 91 1021.7
20260902130519 53 0.0 0.0 0.01 0.07 0.07 90 1021.8
20260902125518 53 0.0 0.0 0.02 0.07 0.07 90 1021.7
20260902124538 54 0.0 0.0 0.03 0.07 0.07 90 1021.7
20260902123518 54 0.0 0.0 0.03 0.07 0.07 90 1021.8
20260902122518 54 0.0 0.0 0.03 0.07 0.07 89 1021.7
20260902121518 54 0.0 0.0 0.03 0.07 0.07 89 1021.6
20260902120518 54 0.0 0.0 0.02 0.06 0.06 89 1021.6
20260902115518 54 0.0 0.0 0.01 0.05 0.05 88 1021.6
20260902114518 55 0.0 0.0 0.00 0.04 0.04 87 1021.5
20260902113559 55 0.0 0.0 0.00 0.04 0.04 88 1021.5
20260902112538 55 0.0 0.0 0.00 0.04 0.04 87 1021.4
20260902111518 55 0.0 0.0 0.00 0.04 0.04 86 1021.2
20260902110519 55 0.0 0.0 0.00 0.04 0.04 86 1021.1
20260902105538 55 0.0 0.0 0.00 0.04 0.04 86 1021.1
20260902104518 55 0.0 1.0 0.00 0.04 0.04 86 1021.0
20260902103518 55 0.0 0.0 0.00 0.04 0.04 86 1020.8
20260902102518 55 0.0 0.0 0.00 0.04 0.04 85 1020.7
20260902101518 56 0.0 0.0 0.00 0.04 0.04 84 1020.5
20260902100518 56 0.0 2.0 0.00 0.04 0.04 84 1020.5
20260902095518 57 0.0 1.0 0.00 0.04 0.04 85 1020.4
20260902094518 57 0.0 2.0 0.00 0.04 0.04 85 1020.3
20260902093517 57 135 1.0 7.0 0.00 0.04 0.04 85 1020.1
20260902092517 58 225 1.0 6.0 0.00 0.04 0.04 84 1020.2
20260902091558 59 225 1.0 8.0 0.00 0.04 0.04 81 1020.1
20260902090537 59 225 2.0 10.0 0.00 0.04 0.04 77 1019.9
20260902085538 59 225 2.0 9.0 0.00 0.04 0.04 78 1019.9
20260902084537 59 225 1.0 7.0 0.00 0.04 0.04 80 1019.7
20260902083518 59 225 1.0 7.0 0.00 0.04 0.04 80 1019.7
20260902082517 59 225 2.0 10.0 0.00 0.04 0.04 80 1019.7
20260902081517 60 225 1.0 6.0 0.00 0.04 0.04 80 1019.6
20260902080518 60 225 3.0 10.0 0.00 0.04 0.04 83 1019.5
20260902075517 58 225 1.0 7.0 0.00 0.04 0.04 89 1019.5
20260902074517 57 225 2.0 9.0 0.00 0.04 0.04 92 1019.4
20260902073518 57 225 1.0 6.0 0.01 0.04 0.04 91 1019.4
20260902072518 57 203 1.0 6.0 0.01 0.04 0.04 93 1019.3
20260902071517 56 225 2.0 8.0 0.01 0.04 0.04 91 1019.3
20260902070517 56 225 2.0 11.0 0.01 0.04 0.04 91 1019.1
20260902065517 56 225 2.0 10.0 0.01 0.04 0.04 91 1019.1
20260902064537 57 225 2.0 10.0 0.01 0.04 0.04 89 1019.2
20260902063517 59 225 3.0 12.0 0.00 0.03 0.03 82 1019.1
20260902062517 59 225 1.0 8.0 0.00 0.03 0.03 85 1019.0
20260902060518 62 225 2.0 12.0 0.00 0.03 0.03 77 1018.9
20260902055517 62 225 2.0 10.0 0.00 0.03 0.03 76 1019.0
20260902054517 61 225 4.0 13.0 0.00 0.03 0.03 77 1019.0
20260902053540 61 225 3.0 12.0 0.00 0.03 0.03 78 1018.9
20260902052519 61 225 3.0 12.0 0.00 0.03 0.03 78 1018.8
20260902051519 61 225 3.0 12.0 0.00 0.03 0.03 79 1018.8
20260902050519 61 225 4.0 14.0 0.00 0.03 0.03 82 1018.7
20260902045519 61 225 3.0 11.0 0.00 0.03 0.03 85 1018.9
20260902044519 59 225 4.0 13.0 0.00 0.03 0.03 91 1019.0
20260902043519 58 225 4.0 11.0 0.00 0.03 0.03 93 1019.0
20260902042518 57 225 3.0 9.0 0.00 0.03 0.03 93 1019.1
20260902041517 56 225 3.0 12.0 0.00 0.03 0.03 93 1019.1
20260902040519 56 225 3.0 14.0 0.01 0.03 0.03 93 1019.1
20260902035519 56 225 3.0 13.0 0.02 0.03 0.03 93 1019.2
20260902034519 57 248 2.0 9.0 0.02 0.03 0.03 93 1019.3
20260902033519 57 225 1.0 5.0 0.03 0.03 0.03 93 1019.3
20260902032518 57 248 1.0 8.0 0.03 0.03 0.03 93 1019.4
20260902031519 57 248 1.0 5.0 0.03 0.03 0.03 93 1019.5
20260902030559 57 248 1.0 4.0 0.02 0.02 0.02 93 1019.3
20260902025519 57 225 2.0 10.0 0.02 0.02 0.02 92 1019.4
20260902024518 57 225 2.0 8.0 0.01 0.01 0.01 91 1019.4
20260902023519 58 248 1.0 9.0 0.00 0.00 0.00 89 1019.3
20260902022519 58 270 1.0 7.0 0.00 0.00 0.00 88 1019.5